Location: Stokes Fall Starparty
(41.2298°N, 74.7506°W)
Time: 00:18:46
(UTC-04:00)

Daily predictions for brighter satellites

Satellite Brightness Start Highest point End
(mag) Time Altitude Azimuth Time Altitude Azimuth Time Altitude Azimuth
Cosmos 2278 Rocket 4.0 00:08:57 10° NNW 00:11:26 27° N 00:11:26 27° N
Cosmos 2219 Rocket 4.3 01:01:06 23° N 01:01:06 23° N 01:03:26 10° N
SL-16 R/B 4.2 01:24:12 24° NNE 01:24:12 24° NNE 01:26:21 10° NNE
Cosmos 2237 Rocket 4.2 01:25:05 24° N 01:25:05 24° N 01:27:35 10° N
Cosmos 2333 Rocket 4.3 01:33:28 22° NNW 01:33:28 22° NNW 01:36:14 10° N
ATLAS 3B R/B 3.8 01:39:39 41° NNW 01:39:39 41° NNW 01:45:57 10° NNE
CZ-4C R/B 3.8 02:13:23 32° N 02:13:23 32° N 02:17:02 10° NNE
SL-16 R/B 4.3 02:27:35 19° E 02:30:19 26° ENE 02:35:18 10° N
Cosmos 2369 Rocket 3.7 02:33:37 10° NNW 02:36:21 29° NNW 02:36:21 29° NNW
Cosmos 1943 Rocket 3.5 02:41:37 10° N 02:46:50 35° ENE 02:47:45 33° ENE
NOSS 3-2 (A) 4.2 02:56:18 47° NNW 02:56:18 47° NNW 03:01:58 10° NNE
BREEZE-M DEB (TANK) 4.5 02:58:40 30° N 02:58:40 30° N 03:02:14 10° NE
ARIANE 5 R/B 3.9 02:55:26 10° NNE 02:59:36 34° E 02:59:36 34° E
CENTAUR R/B 3.3 03:00:45 43° ESE 03:00:45 43° ESE 03:06:36 10° NE
SL-16 R/B 4.4 03:06:05 14° NW 03:06:05 14° NW 03:08:42 10° NNW
Okean O Rocket 4.5 03:13:53 10° ENE 03:14:56 11° E 03:15:58 10° ESE
NOSS 3-2 (C) 4.1 03:15:24 45° NW 03:15:24 45° NW 03:21:36 10° NNE
ATLAS 5 CENTAUR R/B 2.7 03:20:45 49° NNE 03:20:45 49° NNE 03:24:37 10° NNE
ADEOS 4.0 03:20:23 10° NNE 03:24:37 60° N 03:24:37 60° N
Cosmos 2315 Rocket 3.8 03:31:06 84° SSE 03:31:20 88° E 03:37:39 10° N
UNK 4.4 03:33:30 52° NNE 03:33:30 52° NNE 03:37:13 10° N
Cosmos 1862 Rocket 4.4 03:37:42 49° NE 03:37:42 49° NE 03:41:11 10° NNE
CZ-2D R/B 2.3 03:34:00 10° NNE 03:39:14 64° ESE 03:39:27 63° ESE
SL-27 R/B 4.3 03:46:22 31° NE 03:46:22 31° NE 03:48:23 10° NNE
BREEZE-M DEB (TANK) 3.4 03:49:54 73° NNW 03:50:15 80° NNE 03:57:51 10° ESE
Cosmos 1733 Rocket 4.1 03:54:41 10° NNW 03:57:26 37° NNW 03:57:26 37° NNW
Resurs 1-4 Rocket 1.9 03:54:16 10° NNE 03:59:33 82° WNW 04:00:03 73° SW
CZ-2D R/B 3.8 04:03:26 10° NNE 04:07:46 63° E 04:08:22 56° SE
Cosmos 1709 Rocket 4.4 04:04:26 10° NNW 04:10:20 43° W 04:10:20 43° W
EO 1 Del DPAF 3.8 04:11:54 52° NNW 04:11:54 52° NNW 04:14:55 10° NNW
SL-16 R/B 2.6 04:12:41 49° SW 04:13:35 53° W 04:19:38 10° NNW
UNKNOWN OBJECT B 2.9 04:11:22 10° N 04:14:32 61° N 04:14:32 61° N
SeaSat 1 3.4 04:11:52 10° SE 04:16:34 47° ENE 04:21:17 10° NNW
Cosmos 407 Rocket 4.2 04:15:08 25° SSE 04:17:53 49° ESE 04:22:58 10° NNE
Aureole 3 Rocket 4.2 04:14:17 14° S 04:19:44 57° E 04:24:16 10° NNE
USA 234 3.2 04:14:53 10° NE 04:21:29 89° NW 04:24:17 38° SW
AVUM R/B 4.0 04:22:49 48° ESE 04:22:49 48° ESE 04:25:57 10° NE
Cosmos 1862 3.1 04:20:53 10° N 04:24:52 78° W 04:25:01 76° SW
Cosmos 1408 2.5 04:21:35 10° N 04:25:19 83° W 04:25:19 83° W
Cosmos 1455 4.1 04:29:16 19° NW 04:29:16 19° NW 04:30:58 10° NNW
IRS-1C Rocket 4.3 04:23:20 10° NNE 04:28:37 70° ESE 04:32:04 22° S
COSMOS 2406 3.3 04:27:10 43° SW 04:28:55 63° WNW 04:34:39 10° NNE
Cosmos 1943 Rocket 3.1 04:25:28 10° NW 04:29:08 30° WNW 04:29:08 30° WNW
Cosmos 1908 Rocket 3.4 04:27:28 10° NNW 04:31:49 64° W 04:32:42 50° SSW
CZ-4B R/B 3.6 04:29:06 10° NNE 04:34:20 60° ESE 04:39:01 13° S
Cosmos 2074 Rocket 3.9 04:28:20 10° NNW 04:34:29 64° W 04:39:22 17° S
Abrixas rocket 2.4 04:34:10 62° NNW 04:34:34 72° NNE 04:37:53 10° ESE
Cosmos 2327 Rocket 4.4 04:30:10 10° NNW 04:36:12 64° W 04:41:19 15° S
IRS-1D 4.4 04:33:12 10° N 04:37:48 32° WNW 04:38:39 30° W
ARIANE 5 R/B 3.5 04:34:46 10° N 04:39:12 29° WNW 04:39:56 28° W
Cosmos 2154 Rocket 4.2 04:36:08 10° N 04:42:29 75° E 04:48:49 10° SSE
Cosmos 2184 Rocket 4.1 04:36:56 10° NNW 04:43:10 57° W 04:48:43 13° SSW
ERS-2 4.3 04:41:13 10° NNW 04:42:31 14° NW 04:42:31 14° NW
CZ-2C R/B 3.5 04:39:16 10° SSE 04:43:41 85° WSW 04:48:09 10° NNW
BREEZE-M DEB (TANK) 2.8 04:43:40 56° S 04:43:58 62° SE 04:48:12 10° ENE
Cosmos 2082 Rocket 4.3 04:45:01 10° SSE 04:49:30 24° ESE 04:54:00 10° NE
Cosmos 1703 Rocket 3.7 04:48:19 34° SW 04:49:58 54° W 04:54:23 10° N
ARGOS Delta rocket 3.9 04:46:29 10° N 04:50:44 49° WNW 04:52:21 32° SW
Cosmos 1933 3.9 04:50:16 36° W 04:50:47 37° WNW 04:54:38 10° N
CENTAUR R/B 3.3 04:47:56 25° W 04:51:00 39° NW 04:57:32 10° NNE
Okean O Rocket 1.6 04:47:19 10° N 04:51:46 70° WNW 04:54:18 25° SSW
Cosmos 1656 Rocket 3.8 04:48:28 10° NW 04:53:36 45° WSW 04:58:43 10° S
Cosmos 2221 Rocket 3.7 04:51:54 31° SW 04:53:47 55° W 04:58:08 10° N
Cosmos 1610 Rocket 4.5 04:49:25 10° NNW 04:55:40 64° W 05:01:50 10° S
SL-24 R/B - RUBIN 2 4.5 04:50:44 10° NNW 04:57:29 88° WSW 05:03:43 10° SSE
Atlas Centaur 2 3.1 04:56:55 17° S 04:57:57 19° S 05:01:11 10° SE
Cosmos 1825 3.0 04:54:58 10° NNW 04:58:10 30° W 04:58:10 30° W
PSLV R/B 4.3 04:59:05 10° NNE 05:03:24 56° E 05:07:43 10° S
Okean-O 3.5 05:00:03 10° NNE 05:04:22 50° E 05:08:40 10° S
ATLAS 5 CENTAUR R/B 3.9 05:02:18 11° WNW 05:05:01 16° NNW 05:08:20 10° N
Cosmos 1190 Rocket 4.3 05:04:38 23° SW 05:07:38 47° WNW 05:12:40 10° N
CZ-4B R/B 2.7 05:04:41 10° N 05:08:22 62° WNW 05:11:13 17° SSW
Cosmos 2341 Rocket 4.0 05:03:40 10° N 05:10:01 87° W 05:16:22 10° S
Meteor 2-13 Rocket 4.5 05:05:39 10° N 05:11:44 87° E 05:17:47 10° S
Okean 1-7 3.3 05:08:55 19° SSW 05:11:49 49° W 05:16:04 10° N
Cosmos 962 Rocket 4.5 05:09:09 10° N 05:15:28 80° W 05:21:41 10° S
Cosmos 2151 Rocket 3.7 05:11:09 10° N 05:15:35 78° E 05:19:57 10° S
USA 129 2.0 05:15:32 24° SE 05:16:09 44° ENE 05:17:42 10° N
COSMOS 2487 3.3 05:15:19 23° WSW 05:16:51 34° WNW 05:20:12 10° N
CZ-2D R/B 3.7 05:15:27 10° NNW 05:18:45 17° WNW 05:20:47 14° W
Cosmos 1954 Rocket 4.0 05:19:49 10° SSW 05:24:58 72° WNW 05:30:12 10° NNE
Thor Agena Rocket 3.7 05:22:39 10° S 05:27:41 53° W 05:32:49 10° NNW
Meteor 1-31 Rocket 4.0 05:25:28 10° NNE 05:29:07 44° E 05:32:46 10° S
Cosmos 1356 3.5 05:30:28 10° N 05:34:03 82° E 05:37:34 10° S
Cosmos 2218 Rocket 4.2 05:30:23 10° N 05:36:33 75° E 05:42:41 10° SSE
Okean 1 Rocket 4.3 05:33:38 10° N 05:37:50 46° ENE 05:42:04 10° SSE
Resurs 1-4 Rocket 4.1 05:36:58 10° NW 05:38:33 11° WNW 05:40:07 10° WNW
Meteor 1-25 Rocket 4.2 05:33:24 10° NNW 05:38:56 68° W 05:44:27 10° S
Okean 2 Rocket 4.2 05:35:18 10° NNW 05:39:01 25° W 05:42:44 10° SW
Cosmos 1697 Rocket 4.0 05:35:11 10° NNW 05:40:33 44° ENE 05:45:53 10° SE
Meteor 1-20 Rocket 4.2 05:35:09 10° NNW 05:40:53 77° W 05:46:41 10° S
ADEOS II 2.1 05:41:14 10° N 05:46:28 67° WNW 05:51:40 10° SSW
Cosmos 1674 Rocket 3.5 05:42:22 10° S 05:46:49 82° W 05:51:14 10° N
Meteor 2-10 Rocket 4.0 05:44:52 10° SSW 05:50:29 51° WNW 05:56:00 10° N
Cosmos 1850 Rocket 4.1 05:45:52 10° SSW 05:51:09 85° WNW 05:56:31 10° NNE
MOS 1 Rocket 3.4 05:47:23 10° NNE 05:51:40 71° E 05:55:59 10° S
Meteor PRIRODA 3.8 05:48:10 10° N 05:51:52 55° WNW 05:55:33 10° SSW
SeaSat 1 3.5 05:50:24 10° SSW 05:54:16 23° WSW 05:58:09 10° NW
Cosmos 2278 3.9 05:51:15 10° NNW 05:56:49 53° WSW 06:02:19 10° S
GPS 2-05 Rocket1 3.9 05:55:10 10° WSW 05:58:11 30° S 06:01:08 10° ESE
Okean 3 4.4 05:56:48 10° S 06:00:56 54° E 06:05:04 10° NNE
